This is the latest recevied weather packets stored in our database for station/object DG9MHV-10. If no packets are shown the sender has not sent any weather packets the latest 1 day(s).
| Time | Temp. | Humidity | Pressure | Rain* | Wind** | Luminosity | Snow |
|---|---|---|---|---|---|---|---|
| 1777769768 | 8.89° C | 100% | 1016.2 hPa | - | - | - | - |
| 1777768868 | 8.89° C | 100% | 1016.3 hPa | - | - | - | - |
| 1777767968 | 9.44° C | 100% | 1016.4 hPa | - | - | - | - |
| 1777767068 | 9.44° C | 100% | 1016.4 hPa | - | - | - | - |
| 1777766168 | 9.44° C | 100% | 1016.5 hPa | - | - | - | - |
| 1777765267 | 9.44° C | 100% | 1016.6 hPa | - | - | - | - |
| 1777764367 | 10° C | 100% | 1016.6 hPa | - | - | - | - |
| 1777763467 | 10° C | 100% | 1016.7 hPa | - | - | - | - |
| 1777762567 | 10.56° C | 100% | 1016.8 hPa | - | - | - | - |
| 1777761667 | 10.56° C | 100% | 1017 hPa | - | - | - | - |
| 1777760767 | 11.11° C | 100% | 1017.1 hPa | - | - | - | - |
| 1777759867 | 11.11° C | 100% | 1017 hPa | - | - | - | - |
| 1777758967 | 11.67° C | 100% | 1017.1 hPa | - | - | - | - |
| 1777758067 | 12.22° C | 100% | 1017.2 hPa | - | - | - | - |
| 1777757167 | 12.22° C | 100% | 1017.2 hPa | - | - | - | - |
| 1777756266 | 12.78° C | 100% | 1017.4 hPa | - | - | - | - |
| 1777755367 | 13.33° C | 100% | 1017.5 hPa | - | - | - | - |
| 1777754466 | 13.89° C | 100% | 1017.8 hPa | - | - | - | - |
| 1777753566 | 14.44° C | 100% | 1017.7 hPa | - | - | - | - |
| 1777752666 | 15° C | 100% | 1017.6 hPa | - | - | - | - |
| 1777751766 | 15° C | 100% | 1017.9 hPa | - | - | - | - |
| 1777750866 | 15.56° C | 100% | 1017.9 hPa | - | - | - | - |
| 1777749966 | 16.11° C | 100% | 1017.7 hPa | - | - | - | - |
| 1777749066 | 16.67° C | 100% | 1017.7 hPa | - | - | - | - |
| 1777748166 | 17.22° C | 100% | 1017.6 hPa | - | - | - | - |
* Rain since midnight (hover to see other rain measurements)
** Current wind speed in m/s (hover to see current wind gust speed)